Regional Weather Roundup
Issued by NWS

Home | Current Version | Previous Version | Text Only | Print | Product List | Glossary Off
Versions: 1 2 3 4 5 6 7 8 9 10 11 12 13 14 15 16 17 18 19 20 21 22 23 24 25 26 27 28 29 30 31 32 33 34 35 36 37 38 39 40 41 42 43 44 45 46 47 48 49 50

000
ASUS43 KBIS 290010
RWRND

NORTH DAKOTA REGIONAL WEATHER ROUNDUP
NATIONAL WEATHER SERVICE BISMARCK ND
700 PM CDT WED JUN 28 2017

NOTE: "FAIR" INDICATES FEW OR NO CLOUDS BELOW 12,000 FEET WITH NO
SIGNIFICANT WEATHER AND/OR OBSTRUCTIONS TO VISIBILITY.


NDZ001>003-009>011-017-290100-
NORTHWEST NORTH DAKOTA

CITY           SKY/WX    TMP DP  RH WIND       PRES   REMARKS
WILLISTON      CLOUDY    70  53  54 CALM      29.73F
6HR MIN TEMP:  67; 6HR MAX TEMP:  85; 6HR PCP: TRACE;

MINOT          SUNNY     79  45  29 NW9       29.69R
MINOT AFB      MOSUNNY   81  46  29 N12       29.68R
$$

NDZ018>021-031>035-040>046-290100-
SOUTHWEST NORTH DAKOTA

CITY           SKY/WX    TMP DP  RH WIND       PRES   REMARKS
BISMARCK       SUNNY     81  47  30 N10       29.69R
6HR MIN TEMP:  75; 6HR MAX TEMP:  82;

DICKINSON      SUNNY     78  34  20 NE7       29.73R
GARRISON         N/A     79  43  27 VRB7      29.70R
6HR MIN TEMP:  73; 6HR MAX TEMP:  80;

HETTINGER ARPT MOSUNNY   80  31  16 NE8       29.74S
$$

NDZ004>008-012>016-024-026-027-054-290100-
NORTHEAST NORTH DAKOTA

CITY           SKY/WX    TMP DP  RH WIND       PRES   REMARKS
GRAND FORKS    PTSUNNY   69  64  84 N10       29.61S
GRND FRKS AFB  MOSUNNY   67  63  85 N6        29.63R
DEVILS LAKE    SUNNY     75  54  47 N12       29.66R
$$

NDZ022-023-025-028>030-036>039-047>053-290100-
SOUTHEAST NORTH DAKOTA

CITY           SKY/WX    TMP DP  RH WIND       PRES   REMARKS
FARGO          CLOUDY    70  63  78 N15       29.60R
6HR MIN TEMP:  66; 6HR MAX TEMP:  71;

JAMESTOWN      SUNNY     77  51  40 N16       29.65R
$$




USA.gov is the U.S. government's official web portal to all federal, state and local government web resources and services.